Погода в Термезе

Погода в Термезе : погода сейчас, прогноз погоды и архив. Всё, что Вы хотите узнать о погоде в Термезе!

Поиск расширенной информации на нашем сайте:

Другие новости

Новости СМИ2

Главная страница сайта

Новости сайта

02.10.2013

Напоминаем, что на нашем новом сайте вы можете получить высокодетализированные прогнозы погоды по пунктам России, СНГ и мира (включающие важные для авиации метеовеличины, такие как направление и скорость ветра, видимость, явления погоды, количество и форма облачности, нижняя и верхняя граница облачности), а также ознакомиться с разнообразными материалами по авиационной метеорологии и подборкой полезных ссылок на эту тему.

Сайт Метеоцентр.Азия посвящён разработке технологий оптимизации авиаметеорологического обслуживания, включая проектирование и перспективное создание нескольких автоматизированных авиаметеорологических систем:
- система выпуска высокодетальных прогностических карт явлений погоды для нижнего воздушного пространства по России и ближнему зарубежью;
- система верификации прогнозов TAF (выпускаемых синоптиками официальных АМСГ РФ и ближнего зарубежья) и AUTOTAF (выпускаемых сайтом Метеоцентр.Азия) - выявление ошибок, онлайн-сопоставление с фактической погодой METAR, автоматическое внесение коррективов в прогнозы при резком отклонении фактической погоды от прогноза, подсчёт оправдываемости прогнозов по элементам и в целом;
- система обработки, анализа и отображения авиаметеорологической информации для применения провайдерами метеорологической информации.

Рекомендуем: Бесплатная доставка обедов в офис вкусный ланч доставка обедов в офис.

Погода в Термезе - сегодня

Время (UTC), дата Ветер
(°,м/с) 
Видим.   Явления Облачность Т
(°С)
Тd
(°С)
f(%) Тe
(°С)
Pmin
(гПа)
dP
(гПа)
Po
(мм)
O2
(г/м3)
Тmin Tmax R s Состояние
почвы
12 22.04.17 130 (ЮВ) 10 км    4/4 2000 м 
[Cu hum]
+26 +2.3 21 +26  1015.8  -1.1  735  270           
15 22.04.17 150 (ЮВ) 10 км    4/4 2000 м кучево-дожд. 
[Cb cap]
+22 +4.1 31 +22  1017.3  736  274    +27.3       
18 22.04.17 100 (В) 10 км    4/4 2000 м кучево-дожд. 
[Cb cap]
+16.6 +9 61 +17  1019  737  278    +27.3       
21 22.04.17 040 (СВ) 10 км    4/4 2000 м кучево-дожд. 
[Cb cap]
+15 +9.8 71 +16  1019.3  737  280           
00 23.04.17 010 (С) 10 км    ясно 
+12.3 +8.2 76 +13  1019.5  737  283           
03 23.04.17 090 (В) 10 км    ясно 
+18.4 +10.4 60 +21  1020.3  1.5  738  277           
06 23.04.17 100 (В) 10 км    3/3 1500 м 
[Cu hum]
+24.9 +7.3 32 +25  1019.8  0.2  738  271  +12.2         
09 23.04.17 240 (ЮЗ) 10 км    4/4 1500 м 
[Cu hum]
+27.6 +1.3 18 +28  1018.3  -1.2  737  270           
12 23.04.17 310 (СЗ) 10 км    3/3 2000 м 
[Cu hum]
+28.5 -8.6 8 +29  1016  -2.1  736  269           
15 23.04.17 тихо ()   10 км    ясно 
+22.3 +3.8 30 +22  1016.5  -0.2  736  273    +29.1       
18 23.04.17 110 (В) 10 км    ясно 
+17 +6.2 49 +18  1016.9  -0.2  735  278    +29.1       
21 23.04.17 тихо ()   10 км    ясно 
+14.2 +7 62 +14  1015.5  -1.7  734  280           
00 24.04.17 040 (СВ) 10 км    ясно 
+11.3 +7.8 79 +12  1015.3  -0.5  734  283           
03 24.04.17 070 (В) 10 км    ясно 
+16.7 +8.2 57 +18  1015.1  0.4  734  277           
06 24.04.17 тихо ()   10 км    ясно 
+25.9 +4.1 25 +26  1013.3  -0.7  734  269  +10.3         
09 24.04.17 120 (ЮВ) 10 км    ясно 
+28.8 -0.9 14 +29  1010.6  -2.2  732  267           
12 24.04.17 090 (В) 10 км    ясно 
+29.5 +0 15 +30  1008.9  -1.7  731  266           
15 24.04.17 080 (В) 10 км    ясно 
+23.5 +6.4 33 +24  1009.5  731  270    +30.5       
18 24.04.17 030 (СВ) 10 км    ясно 
+18.4 +7.8 50 +19  1011  0.9  731  275    +30.5       
21 24.04.17 020 (С) 10 км    ясно 
+16.1 +9.2 64 +17  1010.6  -0.7  731  276           
00 25.04.17 030 (СВ) 10 км    ясно 
+16 +10.2 68 +18  1010.4  -0.2  731  276           
03 25.04.17 020 (С) 10 км    ясно 
+20 +10.4 54 +22  1011.1  1.2  732  273           
06 25.04.17 080 (В) 10 км    ясно 
+29.5 +9.5 29 +31  1010.2  0.2  732  264  +15.2         
09 25.04.17 170 (Ю) 10 км    ясно 
+31.2 +8.9 25 +31  1008.9  -1  731  263           
12 25.04.17 220 (ЮЗ) 10 км    ясно 
+32.3 +5.8 19 +32  1008  -0.9  730  262           
Время (UTC), дата Ветер
(°,м/с) 
Видим.   Явления Облачность Т
(°С)
Тd
(°С)
f(%) Тe
(°С)
Pmin
(гПа)
dP
(гПа)
Po
(мм)
O2
(г/м3)
Тmin Tmax R s Состояние
почвы

Для получения пояснительной информации подведите курсор к названию столбца.

ПОГОДА в Термезе - архив

Всё, что Вы хотите узнать о погоде в Термезе - удобно и подробно!

Выберите нужную дату (начиная с 1 января 2015* года) и нажмите кнопку "Найти".
Будут отображены архивные сводки погоды по пункту Термез, начиная с указанной даты.


Отображать данные в формате CSV (для использования в таблицах Excel)


Внимание! Наш архив погоды предназначен исключительно для личного некоммерческого использования в познавательных целях. Если Вам необходимы официальные справки о состоянии погоды (для производственных, юридических, коммерческих и т.п. целей), обращайтесь в органы Росгидромета.

*Примечание: данная дата относится к архиву по метеостанциям СССР (Россия, СНГ, Балтия).
Архив по метеостанциям Зарубежной Европы и Азии (кроме Китая) хранится 10 дней, по другим регионам земного шара (Китай, Африка, Америка, Австралия, Океания) - 1 день.

Термез - район местоположения метеостанции


Название, широта, долгота, высота метеостанции:
Термез 37.2°ш. 67.3°д. 310 м над ур. моря [Узбекистан]

Дополнительная информация

В oтличие oт бoльшинства пoгoдных сайтoв мы публикуем пoдрoбную метеoинфoрмацию в детальнoм прoфессиoнальнoм фoрмате.

Характеристики температуры и влажнoсти вoздуха измеряются на высoте 2 м в тени вдали oт зданий и деревьев.
Скoрoсть ветра измеряется на высoте 10 м (на урoвне рoста челoвека скoрoсть ветра ниже в 1.5-2 раза). Если метеoстанция нахoдится в гoрoде или в лесу, тo скoрoсть ветра занижена на 2-4 м/с пo сравнению с oткрытым местoм. Скoрoсть ветра над акватoриями крупных рек и oзёр, а также на вершинах хoлмoв на 2-5 м/с выше, чем в oбычных услoвиях.
Атмoсфернoе давление в разных тoчках местнoсти мoжет значительнo oтличаться oт давления на метеoстанции, в зависимoсти oт услoвий рельефа (при пoдъёме на 10 м давление пoнижается примернo на 1 мм рт.ст.).